Theta_e
314 315 314 316 317 316 315 315 318 318 316 317 316 316 314 310 314 314 314 315 311 313 317 314 316 324 325 325 327 325 327 330 329 335 343 343 343 342 341 341 341 341 340 337 336 336 335 335 335 336 336 337 338 337 337 337 337 336 336 336 335 335 335 335 336 336 336 336 335 335 336 337 337 336 336 336 336 337 337 336 337 337 336 335 334 334
314 316 316 317 318 317 316 317 318 314 313 314 314 313 312 311 314 313 312 313 312 315 316 315 323 328 325 327 329 329 332 332 329 331 337 340 342 342 341 342 342 342 341 339 338 336 335 336 336 336 337 337 337 337 337 337 337 337 336 336 335 336 336 335 335 336 336 336 335 335 335 336 337 337 337 336 336 336 336 336 336 336 337 336 335 334
315 318 319 316 315 316 315 315 317 317 316 316 315 313 313 313 313 314 317 316 313 314 315 318 326 324 321 326 328 330 332 332 331 331 332 335 338 339 339 341 345 346 344 343 340 337 337 337 337 338 338 338 338 337 337 337 336 336 335 334 333 334 336 336 336 335 336 335 335 335 334 334 336 337 337 336 336 335 335 335 336 336 336 336 336 334
317 318 319 313 310 314 316 315 317 320 319 318 317 314 314 314 312 315 320 319 315 314 315 320 325 324 323 326 327 328 331 332 332 331 331 332 334 335 333 335 342 346 345 343 341 340 339 339 340 339 339 338 337 334 333 333 333 333 333 333 333 333 335 336 336 336 336 336 335 335 334 334 334 335 336 335 334 333 332 334 334 335 336 336 336 335
318 316 315 311 310 314 316 315 316 317 315 316 319 318 316 315 313 315 318 321 321 317 315 319 326 328 326 328 328 327 331 332 331 331 332 331 331 332 332 333 336 339 341 343 343 342 340 340 339 336 335 334 332 330 330 331 331 332 333 332 333 334 335 336 336 336 336 336 336 335 335 334 334 334 333 332 331 331 331 332 333 334 336 336 336 336
317 313 311 311 311 313 315 315 316 317 314 314 316 318 317 316 315 316 317 322 325 318 312 316 325 325 325 330 329 329 333 332 331 331 331 331 330 331 332 332 332 333 335 337 337 335 334 334 332 329 329 329 329 329 330 331 332 333 332 331 332 333 335 336 335 335 335 336 336 335 335 334 332 333 332 330 330 330 331 332 333 334 335 336 336 336
316 313 312 313 312 312 314 314 313 315 316 314 315 316 315 316 315 316 316 316 321 318 313 316 322 321 325 331 329 330 334 332 331 332 331 331 330 330 330 329 329 330 330 330 328 327 328 329 328 327 328 329 330 330 330 331 332 331 331 331 332 333 335 336 336 336 335 335 336 336 335 333 331 331 332 331 330 331 332 332 333 334 335 335 336 335
316 314 314 314 313 312 313 314 312 313 315 316 316 314 313 314 315 319 318 315 319 319 318 322 325 327 330 331 329 332 335 333 333 332 331 331 329 329 329 327 327 328 328 329 327 327 328 329 328 328 328 329 330 330 330 331 329 325 326 329 333 333 334 335 336 336 335 335 335 334 333 332 331 330 331 330 329 331 332 331 332 334 334 335 335 335
316 317 316 314 314 313 313 316 313 310 313 317 316 313 313 315 316 319 318 322 324 316 317 324 325 328 329 328 331 334 335 335 335 333 331 332 329 328 327 326 326 325 326 327 327 329 329 328 328 327 327 328 329 330 330 330 331 330 330 331 333 334 335 335 335 336 336 335 335 333 331 331 331 331 330 330 329 330 331 331 333 333 332 334 335 335
313 315 316 313 314 315 315 316 312 310 313 314 313 313 315 317 319 322 320 324 326 318 318 323 324 330 331 330 334 335 335 336 335 333 332 330 328 327 325 324 324 323 323 324 325 326 327 327 327 327 326 326 327 328 329 330 330 330 331 332 333 334 334 335 335 335 335 335 333 331 330 330 330 330 330 330 329 330 331 332 333 332 332 333 334 334
313 314 315 314 315 315 314 312 309 310 311 311 313 313 315 320 325 331 331 325 320 320 323 322 323 333 334 333 336 336 334 335 333 333 331 329 327 325 323 322 322 321 321 321 322 322 323 323 324 325 325 325 325 326 327 328 328 329 330 330 332 333 333 334 335 334 334 334 333 331 329 329 329 330 330 330 329 331 332 333 332 330 331 332 333 333
313 312 313 316 317 313 313 312 308 309 311 314 318 315 314 321 325 328 331 325 319 320 323 320 320 328 332 333 336 335 333 331 331 332 330 328 326 323 321 320 319 319 318 318 318 318 319 320 320 321 323 324 324 324 325 326 326 327 328 329 330 331 333 334 334 334 334 334 334 332 329 329 329 330 330 331 331 331 332 333 332 330 330 330 330 333
314 315 315 314 316 313 313 314 309 309 311 314 318 316 315 320 319 318 321 323 323 320 317 317 322 329 334 335 335 334 333 330 329 329 327 327 325 322 319 318 317 316 316 315 315 315 315 316 317 317 319 320 321 322 323 324 325 326 327 328 328 329 331 333 334 334 335 335 334 332 329 328 329 330 330 331 331 331 331 332 333 332 331 330 330 332
314 317 315 311 313 314 314 314 312 312 312 313 315 316 318 320 317 316 318 319 321 319 313 316 327 335 336 335 333 332 331 329 327 325 324 324 322 320 317 315 315 314 313 313 313 313 313 314 315 315 316 317 318 319 320 321 323 325 326 326 327 328 329 330 332 333 333 332 331 329 328 327 328 329 331 331 331 331 331 332 332 332 331 330 330 332
318 318 317 314 313 314 313 314 316 314 312 312 314 315 318 323 323 319 321 322 318 318 319 323 332 336 335 333 331 330 328 326 325 323 322 320 318 317 315 313 313 312 312 312 311 311 312 312 313 313 314 314 315 316 317 319 320 322 324 326 326 327 328 328 329 329 329 329 328 327 327 327 327 329 331 332 332 331 331 331 331 331 331 330 330 331
315 320 323 317 311 313 313 313 313 312 312 312 312 314 315 320 327 323 321 324 323 324 326 327 329 329 329 330 329 328 327 324 324 322 320 319 316 314 313 312 312 311 311 310 310 310 310 311 311 311 312 312 313 314 315 316 317 319 321 323 325 326 326 327 327 327 327 327 327 327 327 327 328 329 330 331 332 331 331 331 331 331 331 329 329 330
314 320 323 317 312 313 313 313 312 312 316 314 311 315 315 314 322 322 316 318 325 327 323 322 330 330 329 331 329 328 328 324 322 321 318 317 315 313 313 312 311 310 310 309 309 309 309 310 310 310 311 311 312 313 313 314 315 316 317 319 322 324 326 326 327 327 327 327 328 327 327 328 328 329 329 329 331 331 331 331 330 330 330 329 330 330
320 323 321 315 312 312 312 313 313 312 315 316 314 315 313 311 316 320 319 320 326 329 323 322 332 333 329 331 330 328 329 326 322 319 317 315 314 312 312 311 310 309 309 308 308 308 309 309 309 309 309 310 310 311 311 312 312 313 315 316 317 320 322 324 326 327 328 328 328 328 328 328 328 328 329 329 329 330 330 330 330 328 328 330 331 330
318 320 319 315 311 314 318 316 313 312 311 313 315 314 313 316 317 316 318 319 319 324 326 327 331 330 328 329 329 329 330 326 321 318 316 314 313 312 311 310 309 308 308 307 307 307 308 308 308 308 308 308 308 309 310 310 310 311 312 314 314 315 317 320 322 324 326 327 327 328 328 328 328 328 328 328 329 329 330 331 330 329 328 329 331 331
318 319 318 316 313 315 322 322 317 314 311 312 314 313 317 324 322 316 318 320 320 324 326 329 330 329 329 329 329 329 328 325 321 318 315 313 312 311 310 309 308 308 307 307 306 306 307 307 307 307 307 307 307 308 308 308 308 309 309 310 311 312 314 317 319 321 322 324 325 326 327 327 328 328 328 329 329 329 329 330 330 330 329 330 330 331
316 316 317 321 323 320 320 323 322 318 313 314 317 314 316 320 317 315 316 316 321 328 327 328 330 328 327 327 326 326 324 321 319 316 314 312 310 310 309 308 307 307 306 306 305 305 306 306 306 306 306 306 306 306 306 306 306 306 306 307 307 308 310 313 316 318 320 322 324 324 326 327 327 328 328 329 329 328 329 329 329 330 330 330 331 331
313 316 321 329 334 328 322 321 321 319 314 319 326 323 320 318 316 319 317 314 322 330 327 327 330 328 324 321 320 320 319 318 315 313 312 311 310 309 307 307 306 306 305 305 304 305 306 306 305 305 305 305 305 305 305 305 305 305 305 305 305 306 308 310 312 314 316 319 322 323 324 326 327 328 328 328 328 328 329 329 329 330 330 331 331 331
324 330 330 328 328 326 322 319 319 318 317 323 329 326 326 325 322 329 329 321 323 326 324 326 330 327 320 317 316 316 315 314 313 312 311 309 309 307 306 306 305 305 304 304 304 304 305 305 304 304 304 304 304 304 304 304 304 303 304 304 304 305 307 309 310 312 314 316 319 321 323 324 326 327 328 328 328 328 329 329 330 330 330 331 331 330
329 333 331 326 327 329 326 321 320 320 323 329 328 323 326 328 325 332 337 331 328 327 328 331 331 326 319 315 314 313 312 311 311 310 309 308 307 306 305 305 304 304 303 303 303 304 304 304 304 303 304 303 303 303 303 303 303 303 303 303 303 304 305 306 308 311 313 314 316 319 321 322 324 326 328 329 329 329 329 329 330 330 330 330 331 330
322 325 328 329 327 328 330 326 324 324 327 330 325 320 322 323 323 325 326 331 331 323 325 332 330 324 319 314 313 312 311 310 310 309 308 307 306 306 305 304 303 303 303 302 302 303 303 303 303 303 302 302 302 302 302 302 302 302 302 302 302 303 304 305 306 308 310 311 314 316 318 320 322 323 325 327 329 330 330 330 329 329 329 329 330 330
323 320 328 336 331 329 332 330 326 326 327 325 321 318 320 321 323 322 323 333 331 320 321 331 327 320 317 314 312 312 310 310 309 308 307 306 305 305 304 303 303 302 302 302 301 301 301 302 302 302 302 301 301 301 301 301 301 301 301 301 302 302 303 304 305 306 307 308 310 312 315 317 319 321 323 324 327 329 330 330 329 328 328 328 328 329
325 317 320 329 330 330 330 326 322 323 327 326 321 318 319 315 316 323 329 331 328 322 324 327 322 318 317 314 312 311 310 310 308 307 307 306 305 304 304 303 303 302 301 301 300 300 300 301 301 301 301 301 300 300 301 301 301 301 301 301 302 302 302 303 304 305 306 306 307 309 312 315 318 319 321 323 325 327 328 329 329 328 328 328 328 328
328 321 318 319 321 321 320 318 318 319 321 322 319 318 317 314 318 331 333 323 321 326 328 323 319 319 317 314 312 311 309 309 308 307 306 305 304 304 303 303 302 301 301 300 300 300 300 300 300 300 300 300 300 300 300 300 301 301 301 301 301 302 302 302 303 304 304 305 306 306 308 312 316 318 319 322 325 325 327 328 328 327 327 328 327 328
327 322 318 317 317 316 316 316 317 317 316 316 317 317 317 316 321 328 324 316 321 331 329 321 318 317 314 312 311 310 308 308 307 305 304 304 303 303 302 302 301 301 300 300 300 299 299 299 299 299 299 299 299 299 299 300 300 300 301 301 301 302 302 302 302 303 304 304 305 306 307 309 313 316 318 321 324 325 326 327 327 327 327 327 327 327
324 320 316 316 316 316 316 316 315 315 316 315 315 315 315 316 317 318 316 315 320 325 321 316 315 313 311 310 309 308 307 306 305 304 303 303 303 302 302 301 300 300 300 299 299 299 299 299 299 299 299 299 299 299 299 299 300 300 300 301 301 301 302 302 302 303 303 303 304 305 306 307 310 313 316 319 322 324 325 326 327 327 327 327 327 327
321 321 317 316 317 316 315 315 315 315 315 315 314 314 314 315 315 315 315 316 316 316 314 313 313 311 309 308 307 307 306 305 304 303 302 302 302 301 301 300 300 299 299 299 299 298 298 299 299 298 298 298 299 299 299 299 299 300 300 300 300 301 301 302 302 302 303 303 303 304 305 306 308 310 313 317 320 323 324 326 327 326 326 326 326 327
323 320 317 317 319 318 315 315 315 315 315 316 314 314 314 315 315 314 314 314 315 314 313 313 313 311 308 307 307 306 305 304 303 302 301 301 301 300 300 300 299 299 298 298 298 298 298 298 298 298 298 298 298 299 299 299 299 299 300 300 300 300 301 301 301 302 302 302 303 303 304 305 306 308 311 314 318 320 323 325 326 326 326 326 326 326
321 318 318 319 321 319 316 317 318 318 322 320 315 313 314 313 313 313 312 312 313 313 314 315 313 309 307 306 306 305 304 303 302 302 301 300 300 300 299 299 299 298 298 298 298 298 298 298 298 298 298 298 298 298 298 299 299 299 299 300 300 300 301 301 301 301 302 302 303 303 303 304 305 306 309 312 315 318 321 324 325 326 325 325 325 325
317 317 319 320 320 320 317 317 319 323 324 319 312 311 312 312 311 312 311 310 310 311 312 311 309 307 306 305 304 303 302 301 301 300 300 300 300 300 299 299 299 298 298 298 298 298 298 298 298 298 298 298 298 298 298 299 299 299 299 299 300 300 300 300 300 301 301 302 302 303 303 304 304 305 306 309 312 315 318 320 323 324 324 324 323 323
317 319 319 318 319 319 317 318 323 324 319 313 310 310 310 309 309 310 309 308 308 308 308 308 307 306 305 303 302 302 301 300 301 300 299 299 299 299 299 299 299 298 298 298 298 298 298 298 298 298 298 298 298 298 298 298 299 298 299 299 299 299 299 299 300 300 301 301 302 302 303 303 304 304 305 306 308 310 312 314 316 317 318 319 321 320
318 319 319 318 318 318 318 319 320 317 312 310 309 309 309 310 310 311 310 309 308 307 307 307 306 304 303 302 301 301 301 300 300 300 299 299 299 299 299 299 299 299 299 298 298 298 298 298 298 298 298 298 298 298 298 298 299 299 299 299 299 299 299 299 299 299 300 300 301 302 302 303 303 303 304 305 305 305 306 307 308 309 310 311 315 316
317 319 319 318 317 316 316 316 315 313 312 311 311 310 311 312 312 312 312 309 308 307 306 305 305 303 302 302 302 301 301 300 300 300 300 300 300 300 300 300 300 299 299 299 299 299 299 299 299 299 299 299 299 299 299 299 299 299 299 299 299 299 299 299 299 299 299 300 301 302 303 302 303 303 303 303 303 302 303 303 303 304 304 305 307 308
316 319 321 321 317 315 314 314 313 315 315 313 312 311 311 311 311 311 311 310 307 306 305 304 304 303 302 302 302 301 302 303 301 300 300 300 300 300 300 300 300 299 299 299 299 299 299 299 299 299 299 299 299 299 299 299 299 299 299 299 299 299 299 299 299 299 299 299 300 302 303 303 302 303 302 302 302 301 301 301 301 301 301 301 302 302
313 315 319 320 317 315 316 315 314 315 314 312 312 310 310 311 311 310 313 312 307 305 305 304 302 302 302 302 302 302 304 305 303 300 300 300 300 300 300 300 299 299 299 299 299 299 299 299 299 300 300 300 300 300 300 299 299 299 299 299 299 299 299 299 299 299 298 299 300 301 303 303 303 303 302 302 301 301 301 300 300 300 300 300 300 300
316 316 318 319 317 316 316 314 313 313 311 310 310 310 310 310 309 311 316 314 307 305 306 304 302 302 302 302 302 303 305 306 303 300 300 300 300 300 300 299 299 299 299 299 299 299 299 299 299 299 299 299 300 300 300 299 299 299 299 299 299 299 299 299 299 299 298 299 300 301 302 303 303 302 302 302 301 301 301 301 300 300 300 300 299 300
316 315 314 315 315 315 314 313 312 311 310 309 310 309 310 310 311 314 317 310 304 304 305 304 303 303 302 302 303 303 303 303 301 300 300 300 300 300 299 299 299 299 299 299 299 299 299 299 299 299 299 299 300 300 300 300 299 299 299 299 299 298 299 300 299 299 298 299 300 301 301 303 303 303 302 302 302 301 301 301 301 301 300 300 299 300
314 314 313 313 311 309 310 311 313 312 309 309 310 308 309 312 314 313 308 303 301 302 303 303 303 303 302 302 302 301 301 300 300 300 300 300 300 300 299 299 299 299 299 299 299 299 299 299 299 299 299 299 299 300 300 299 299 299 299 299 299 299 299 300 300 299 298 298 299 300 301 302 303 303 302 302 302 302 301 301 301 301 301 301 299 299
310 312 312 309 306 307 311 312 314 314 309 307 309 309 310 312 311 306 302 301 302 301 301 302 302 302 302 301 300 300 300 299 300 300 300 300 299 299 299 299 299 299 299 299 299 299 299 299 299 299 299 299 299 299 299 299 299 299 299 299 299 299 299 300 300 300 299 298 298 299 300 301 303 303 303 302 302 302 302 301 301 301 301 301 300 299
307 309 310 306 304 310 316 314 312 310 305 304 307 309 307 306 304 302 301 302 301 300 301 301 301 300 300 300 299 299 299 300 300 300 300 300 299 299 299 299 299 299 299 299 299 299 299 299 299 299 299 299 299 299 299 299 299 298 298 298 298 299 299 300 300 300 299 298 298 298 299 300 301 302 303 303 302 302 302 301 301 301 300 300 300 299
307 307 307 305 304 308 311 308 305 304 302 302 303 303 302 302 301 301 302 301 301 301 300 300 300 300 299 299 299 299 300 300 300 300 301 300 299 299 299 299 299 299 299 300 300 299 299 299 299 299 299 299 299 299 299 299 299 298 298 298 298 298 299 299 300 300 300 299 298 298 298 299 300 301 301 302 302 302 302 301 301 301 300 300 300 299
305 305 306 306 305 305 306 304 303 303 302 301 301 301 301 301 301 301 301 301 300 301 300 300 300 300 299 299 299 299 300 300 300 301 300 299 299 299 299 299 299 299 300 300 300 300 300 299 299 299 299 299 299 299 298 299 299 298 299 299 298 298 299 299 299 300 300 300 298 298 298 298 299 300 300 301 301 301 301 301 301 301 300 300 299 299
306 306 307 306 306 306 306 304 303 303 302 301 301 301 300 300 300 300 300 300 300 300 300 300 300 299 299 300 300 300 300 301 302 301 298 296 297 299 299 299 299 300 300 300 300 300 300 300 299 299 299 299 299 299 299 299 298 298 299 298 298 298 298 299 299 299 300 300 299 298 298 297 297 298 299 299 299 299 300 300 300 300 300 299 299 299
306 306 306 306 306 306 306 304 302 302 301 301 301 301 300 300 300 300 299 299 299 299 298 298 298 298 299 299 298 299 301 300 301 302 300 297 297 299 299 299 300 299 299 299 299 299 299 299 299 299 299 299 299 299 299 299 298 298 298 298 297 297 298 298 299 299 299 300 300 299 298 297 297 297 297 297 297 297 298 298 298 298 298 298 299 299
306 306 306 305 305 305 305 303 302 302 301 301 301 301 300 300 299 300 299 299 299 299 298 298 297 297 298 297 296 298 302 300 297 298 299 298 298 299 299 299 299 298 298 298 297 298 298 298 298 298 298 299 299 299 299 298 298 298 298 298 297 297 297 297 298 298 299 299 300 300 299 298 297 297 297 297 297 297 296 296 297 297 297 297 297 298
306 306 304 305 305 305 304 303 302 303 303 302 301 300 300 300 300 300 300 300 300 300 299 299 298 296 297 297 297 298 300 299 296 297 298 298 298 299 298 298 298 297 296 296 297 297 297 297 297 297 297 298 299 298 298 298 298 298 298 298 298 298 298 297 296 297 298 298 298 299 299 298 297 297 297 297 296 296 296 296 296 296 296 296 296 297
307 305 303 305 306 305 304 303 302 303 302 301 300 300 299 299 299 300 300 300 299 298 297 298 299 299 297 297 298 298 298 297 297 298 298 298 298 298 297 297 296 296 296 296 296 295 295 295 296 296 297 298 298 298 298 297 297 298 298 298 299 299 298 297 296 296 297 297 297 297 298 298 298 297 297 297 296 297 297 296 296 296 296 296 296 296
Wind_Speed
3 4 3 5 6 6 7 7 7 6 7 7 5 5 4 2 3 5 4 7 2 2 3 2 5 8 8 8 9 7 8 11 9 7 3 1 0 2 3 3 5 5 8 9 8 9 12 15 16 16 15 14 14 14 16 17 17 18 18 19 20 20 20 22 23 22 23 24 23 23 23 23 23 23 22 21 22 23 22 22 24 25 25 25 25 25
4 5 5 6 8 7 7 7 7 6 6 6 5 5 3 1 4 6 4 5 2 2 2 5 11 8 7 7 9 8 11 13 11 8 7 5 2 1 1 3 5 5 6 7 6 6 6 8 11 11 11 10 11 12 14 15 16 17 17 17 17 17 18 21 21 22 24 25 24 24 24 25 23 23 24 23 24 24 22 23 25 26 26 27 26 25
3 3 7 7 6 5 5 4 7 7 5 5 4 4 1 2 3 6 4 4 4 2 1 8 11 5 6 6 8 12 11 8 7 7 8 8 7 5 3 3 4 5 5 5 6 8 6 4 5 7 8 9 10 11 11 12 11 8 5 5 7 10 13 15 17 19 21 23 23 21 21 22 21 21 23 24 25 24 23 25 26 25 25 27 27 25
4 4 7 6 6 7 6 4 7 6 4 4 4 5 2 3 0 3 4 3 4 3 4 9 9 4 6 6 8 11 8 6 8 9 10 10 9 8 6 4 3 3 3 4 5 5 5 5 4 3 5 8 9 10 12 10 7 8 8 5 7 12 15 14 15 17 19 21 21 20 19 20 20 20 20 20 22 22 22 24 26 26 26 27 27 26
4 4 5 8 7 7 6 4 7 6 2 1 3 5 3 3 3 4 3 4 4 4 5 8 7 5 6 8 8 8 6 8 11 12 13 13 11 10 9 10 8 5 4 5 5 6 6 8 11 14 13 11 14 16 14 12 7 7 9 10 13 17 18 16 16 17 17 20 21 19 19 18 18 19 17 15 17 21 23 23 25 27 27 27 28 27
5 3 6 9 5 6 7 4 5 6 4 2 3 6 7 6 5 5 3 5 5 3 1 5 6 2 4 7 7 6 7 10 12 15 15 13 12 12 11 11 11 10 8 7 8 9 10 12 15 19 20 17 15 11 3 2 3 9 17 18 17 16 15 14 14 15 16 18 20 20 20 17 16 17 17 16 18 22 25 24 24 26 27 28 28 27
3 4 6 8 6 6 6 4 4 6 6 2 5 8 8 6 5 4 2 2 2 2 2 4 6 2 3 5 6 5 7 12 12 14 14 12 12 11 11 11 11 12 10 9 10 10 11 13 13 14 15 14 12 11 9 10 12 5 11 19 19 16 16 16 16 16 17 18 19 20 20 19 17 17 20 20 19 22 24 23 23 25 27 28 27 26
4 6 5 6 6 5 5 4 5 6 8 3 6 9 9 7 6 4 4 3 2 3 1 4 5 5 1 3 4 5 6 12 13 13 13 11 12 12 12 12 12 12 11 10 10 10 11 13 12 10 10 9 9 9 10 11 10 8 5 14 20 20 20 21 20 19 19 20 20 19 17 18 19 19 20 19 18 21 22 23 24 24 25 26 24 24
4 7 8 7 5 4 5 6 8 9 5 5 6 8 8 7 6 5 5 3 1 0 2 6 4 5 1 3 4 4 5 10 11 11 12 11 12 12 12 12 13 12 12 12 11 10 11 13 14 12 10 10 6 1 5 5 2 2 5 12 18 21 21 21 20 20 19 20 20 17 16 20 21 21 22 17 15 18 20 22 24 23 22 23 23 24
2 6 8 9 6 5 6 6 11 12 5 5 6 7 4 5 4 4 5 3 3 3 3 6 3 5 1 4 3 2 4 7 7 7 9 10 11 12 12 12 12 11 10 11 11 12 14 15 16 15 15 16 13 7 6 9 8 5 5 8 12 15 16 16 17 17 17 19 18 15 16 20 21 21 23 18 14 16 17 19 20 19 20 22 24 25
1 1 4 5 5 6 5 4 9 12 8 6 8 7 6 5 5 4 3 3 4 1 5 5 1 5 1 3 2 2 4 5 4 5 7 9 11 11 11 11 11 10 9 10 10 13 17 20 21 20 19 19 19 17 13 11 11 11 10 11 12 13 14 13 13 13 14 16 17 16 16 19 22 22 19 16 15 16 16 17 18 18 21 22 23 24
5 2 1 2 3 4 5 3 2 4 4 6 5 5 5 3 4 4 4 4 4 2 5 3 2 5 3 1 1 5 6 5 4 5 7 9 11 10 10 10 10 10 10 10 10 12 16 18 21 23 23 22 23 24 22 17 13 12 11 12 13 13 14 13 13 12 14 17 19 19 18 20 23 21 17 15 17 18 18 19 19 19 20 20 22 25
3 2 4 4 2 5 6 3 3 3 2 5 5 6 6 1 2 2 2 0 2 3 2 4 3 4 3 1 4 7 8 7 7 7 9 9 10 10 10 10 9 9 10 11 10 11 12 13 16 19 21 23 24 26 25 21 18 14 12 12 13 14 14 12 14 16 18 21 21 19 18 20 19 16 14 14 17 19 20 21 21 22 22 23 25 28
2 5 4 2 2 4 7 5 2 0 1 4 5 6 5 3 3 2 1 0 1 2 2 4 3 2 1 2 5 7 8 8 9 10 10 10 10 10 10 10 10 11 11 10 10 10 10 13 16 18 19 21 24 25 25 24 22 19 16 15 15 16 15 12 13 16 17 17 15 14 14 16 16 14 12 13 17 20 20 20 21 23 23 24 26 28
4 3 4 4 3 4 8 7 7 7 5 4 4 5 5 4 5 4 3 3 3 1 2 5 3 1 2 1 4 6 7 8 9 9 10 10 10 9 9 10 11 11 11 10 10 11 12 15 17 19 20 22 23 24 25 25 25 23 20 18 17 17 16 16 14 13 14 15 13 12 13 15 15 13 11 12 16 19 20 21 21 22 23 22 22 24
4 4 7 3 2 7 8 5 6 8 5 2 3 6 4 5 6 3 3 4 5 3 3 3 1 0 1 0 2 5 7 8 9 8 9 10 9 8 8 10 10 10 10 10 10 11 14 16 18 19 20 21 23 24 24 25 25 24 22 21 20 18 17 17 16 14 14 15 15 16 17 17 16 15 14 14 17 19 20 21 21 21 20 19 19 20
3 3 6 2 2 6 7 5 5 6 5 2 2 4 4 4 8 6 2 1 4 5 1 2 2 1 0 1 1 5 7 8 9 9 9 8 8 9 9 9 10 9 9 10 9 10 13 16 18 18 18 19 21 22 23 24 24 23 23 23 22 20 18 17 16 14 13 14 15 17 17 18 18 18 18 17 17 17 17 18 18 18 15 14 17 18
4 2 5 0 4 3 2 6 5 2 5 5 3 5 3 3 6 5 3 3 4 4 0 1 2 3 1 1 1 5 7 8 8 8 8 8 9 10 9 9 10 10 9 9 10 10 13 15 17 18 18 18 19 19 21 23 24 24 24 24 23 22 19 17 15 13 12 13 14 15 16 16 17 18 18 17 16 16 17 18 17 16 16 15 15 16
4 1 5 2 2 1 4 7 5 6 3 5 5 5 4 4 2 2 3 2 3 3 0 1 1 1 1 1 2 4 6 8 7 7 7 8 9 9 9 9 10 10 9 9 9 9 12 15 17 18 19 20 22 22 22 24 26 27 27 26 26 24 23 21 18 15 14 14 15 16 16 16 16 16 18 18 19 20 21 20 17 16 18 18 17 16
3 3 2 4 1 1 4 4 3 1 5 5 5 3 2 3 4 3 3 3 4 4 1 2 1 2 2 2 1 3 6 8 8 7 7 7 8 7 7 8 9 10 9 9 9 9 12 16 18 18 18 20 22 23 23 24 27 28 29 30 30 28 27 27 23 20 19 16 16 17 17 18 18 17 17 19 20 21 23 23 22 21 20 19 19 19
2 3 2 4 5 1 2 1 3 5 3 4 3 2 1 2 2 3 2 2 4 5 3 3 2 2 1 0 2 6 7 7 8 8 7 6 6 7 7 8 8 8 9 9 9 9 12 16 18 19 19 21 24 25 25 25 26 26 27 29 30 29 29 30 28 25 23 20 17 18 17 17 17 16 16 18 20 20 22 25 25 23 20 19 20 20
1 2 2 2 4 3 0 2 2 4 5 5 4 3 3 3 4 4 2 1 3 4 4 5 4 2 2 3 4 7 7 7 7 8 8 6 6 7 7 8 8 8 9 9 9 10 12 15 17 18 20 22 25 27 28 28 27 27 27 27 29 29 29 30 30 28 25 22 20 19 18 16 15 15 17 19 20 19 21 23 24 23 22 20 20 20
3 3 4 2 1 1 3 2 1 2 4 6 4 2 3 3 4 6 4 3 3 3 3 4 2 2 2 4 4 5 7 7 6 7 8 6 6 7 8 8 8 8 9 9 9 11 13 15 16 17 18 20 22 24 26 27 28 28 28 28 29 31 29 29 29 28 25 23 21 19 18 16 14 14 17 19 20 20 22 23 23 24 23 21 21 22
2 4 4 1 3 3 4 4 3 4 6 6 4 3 2 1 3 5 5 4 4 3 2 4 1 2 3 4 4 5 7 7 6 7 9 6 6 7 8 8 8 8 9 9 10 11 13 14 15 16 18 19 20 22 23 24 26 28 30 30 31 31 29 27 28 28 26 25 23 20 18 16 14 14 16 18 18 20 22 23 24 23 22 21 21 22
1 2 3 3 3 4 5 5 4 4 4 4 2 4 3 2 4 4 3 4 4 4 4 4 2 2 3 4 5 5 7 8 8 9 8 6 6 7 7 7 7 8 9 9 9 11 13 14 14 15 17 18 19 20 21 21 24 27 29 30 31 32 29 27 27 27 25 24 24 23 21 18 15 14 14 15 18 20 21 23 25 24 22 21 21 22
3 2 3 4 4 2 1 1 1 1 2 2 2 5 5 4 4 3 3 4 3 4 3 4 3 3 5 6 6 5 6 8 9 8 7 6 7 6 6 6 7 7 8 9 9 9 10 12 13 15 16 17 18 19 20 22 24 26 28 29 30 31 30 29 27 26 24 23 23 23 23 21 19 17 15 13 14 19 22 23 24 24 23 22 22 23
5 3 4 5 5 4 4 2 2 2 3 3 3 7 7 4 3 3 4 3 5 5 2 1 6 8 7 6 6 5 6 7 7 7 7 7 7 6 6 6 6 7 7 8 8 9 10 11 13 16 16 16 18 20 21 23 25 25 26 28 29 29 30 30 27 24 24 24 23 23 23 22 22 21 17 13 12 16 21 25 25 24 23 23 23 23
6 4 5 8 8 4 3 3 5 6 7 5 4 7 8 6 4 5 4 2 6 6 1 3 8 9 7 7 7 5 5 6 7 7 7 6 7 6 6 7 7 8 8 8 9 9 10 10 12 15 16 16 19 22 23 24 25 25 25 27 28 29 29 29 25 23 23 24 25 25 24 23 21 21 19 14 13 15 20 24 26 24 23 24 25 25
7 3 2 7 9 8 6 6 8 10 9 9 10 9 10 9 8 7 4 1 3 4 5 9 11 8 6 7 7 6 5 7 7 7 6 7 7 6 7 8 8 9 9 9 9 9 9 10 12 14 16 17 20 22 23 24 24 25 26 27 29 29 29 28 25 23 22 24 26 28 27 25 24 22 20 16 14 16 20 24 25 23 24 26 27 26
5 3 2 7 10 9 8 6 7 10 10 10 12 12 11 12 11 10 6 5 6 7 9 13 13 8 5 6 7 7 6 7 7 7 7 8 7 7 8 8 8 9 9 9 9 9 9 10 12 14 16 19 21 21 22 22 23 25 26 28 29 30 29 28 27 25 23 23 26 29 29 28 26 24 22 18 15 17 20 24 25 24 26 27 28 29
4 4 3 3 7 7 7 6 8 10 12 12 12 10 10 10 9 8 6 6 8 9 11 13 12 7 4 5 7 7 6 7 7 7 7 7 7 7 8 8 8 8 8 9 9 9 9 11 14 16 18 20 21 22 22 22 23 25 27 29 29 29 29 29 28 28 27 25 26 29 31 31 29 27 24 20 17 17 21 23 25 26 28 28 29 30
4 5 3 1 5 3 3 6 8 10 12 13 11 9 9 6 5 5 4 4 4 8 12 11 7 4 5 6 8 7 7 8 7 7 7 6 7 7 7 7 8 8 8 8 9 9 9 11 14 17 19 21 22 23 24 24 25 26 27 28 28 29 30 30 30 30 30 30 30 31 32 32 31 29 26 22 18 17 20 23 25 26 27 28 29 31
3 6 4 2 4 3 1 1 3 5 7 7 5 5 5 4 5 5 5 6 4 4 7 5 3 5 7 7 8 7 8 8 7 6 6 6 6 7 7 7 6 6 7 8 9 9 10 12 16 18 20 21 23 24 25 26 26 25 25 26 27 29 31 31 31 31 31 33 33 33 33 32 31 30 27 23 19 16 17 20 25 27 27 28 30 31
5 7 4 2 4 4 3 2 4 3 3 1 3 3 1 3 7 8 7 7 6 4 5 6 7 8 7 7 8 8 7 7 7 7 6 5 5 5 6 6 6 6 7 7 8 9 12 15 17 19 20 22 24 25 26 26 26 25 25 26 28 30 32 32 33 33 33 34 34 34 34 33 31 29 28 25 20 17 14 13 17 22 25 27 28 28
6 6 4 2 3 4 2 3 3 1 0 1 2 2 4 7 10 13 11 9 9 9 10 11 9 8 8 8 8 9 9 9 8 7 7 6 4 4 5 5 6 6 6 6 7 10 14 16 17 19 21 23 24 25 26 27 27 27 27 28 30 32 32 32 34 35 34 34 34 34 34 34 32 29 27 25 22 18 15 12 8 7 12 17 22 24
7 5 4 3 3 3 2 2 2 2 2 4 4 3 4 5 5 8 9 8 7 7 8 10 9 8 9 9 8 9 9 8 8 7 6 6 5 4 5 4 4 5 6 7 8 11 14 16 17 19 21 23 24 25 26 26 27 28 29 30 32 32 32 32 33 34 34 34 34 33 33 32 31 29 27 25 24 22 20 16 11 7 2 6 15 20
6 5 4 3 2 2 3 3 3 3 3 4 3 1 2 1 1 3 4 4 4 4 6 9 10 9 9 8 8 8 7 6 6 5 5 5 5 5 5 5 5 6 8 11 12 13 16 17 18 19 21 23 25 25 25 25 26 28 29 31 32 32 33 33 33 33 33 34 34 33 32 31 30 28 27 26 25 24 22 19 16 12 9 7 10 15
6 4 5 4 1 2 4 4 3 2 2 3 3 2 1 1 3 3 4 3 2 3 6 9 9 9 9 8 7 6 4 3 4 3 3 4 4 4 6 7 9 10 12 14 15 16 18 19 20 21 22 23 25 25 25 26 26 27 28 29 31 32 33 33 32 31 32 32 33 33 32 30 29 28 27 26 26 25 24 22 20 17 16 14 14 17
9 5 5 6 3 2 4 4 2 2 1 2 4 2 2 1 3 3 3 2 1 2 6 9 9 9 8 7 7 5 2 1 2 2 1 2 3 4 5 7 11 13 13 15 15 15 17 19 20 21 22 22 24 25 25 25 25 25 26 27 29 30 32 32 31 30 30 30 32 33 32 30 28 27 26 25 25 26 26 25 23 21 21 19 19 23
8 5 4 5 4 3 4 3 1 1 0 1 2 2 2 1 3 3 1 2 2 2 5 8 9 8 7 7 5 3 0 1 3 3 2 2 4 6 7 8 10 12 14 16 16 16 17 19 20 20 20 21 21 22 23 24 25 25 25 26 28 30 30 30 29 29 28 29 31 32 32 30 28 26 25 23 24 25 26 27 26 26 26 22 20 26
4 4 3 4 4 4 4 3 1 0 0 1 1 2 2 1 3 2 2 3 4 4 4 7 8 7 6 5 4 1 1 2 5 5 3 4 5 6 8 9 10 11 13 15 16 17 18 19 19 19 19 20 21 22 22 23 25 25 25 26 28 29 29 27 27 29 29 28 30 32 32 30 28 26 25 22 22 25 27 27 27 28 28 25 23 27
2 2 2 2 3 3 3 3 1 1 0 1 1 2 1 1 2 2 2 3 5 5 4 5 6 6 5 4 4 4 3 5 7 5 4 4 5 6 8 10 10 11 13 15 16 17 18 18 20 20 20 21 22 22 23 24 24 24 24 26 28 29 28 27 26 28 29 29 29 30 32 32 29 27 26 24 24 25 27 28 28 29 29 27 26 28
2 2 2 1 2 2 3 3 1 1 0 1 0 0 1 0 3 4 4 5 5 5 5 5 5 6 7 6 6 7 7 6 6 5 4 5 5 5 7 8 8 10 12 14 15 16 16 17 18 19 19 21 22 22 23 24 24 24 24 26 26 27 27 28 27 26 27 29 28 28 30 32 30 28 27 26 27 27 28 29 30 31 31 31 30 30
1 1 2 2 2 1 2 2 1 1 1 2 0 1 1 2 4 6 6 5 5 5 5 5 4 6 8 9 8 7 7 6 5 4 4 4 4 5 6 7 8 10 11 12 14 15 15 16 16 17 18 19 21 22 23 24 25 25 25 25 25 24 25 26 27 25 25 27 28 27 27 29 30 30 28 28 28 29 29 29 30 30 31 31 32 31
1 2 3 3 2 3 2 2 1 2 2 3 3 3 5 6 6 6 7 6 6 5 4 6 6 6 8 9 9 7 6 5 4 4 3 3 4 5 6 7 8 10 11 12 13 14 15 15 15 16 17 17 19 21 22 23 24 24 24 24 24 23 22 23 25 25 23 23 25 26 25 25 26 28 28 27 28 28 28 28 29 29 29 30 30 29
2 2 3 3 5 5 5 4 4 5 6 7 6 5 7 7 6 6 7 6 5 4 4 5 7 7 7 8 8 6 5 5 4 4 3 3 4 4 5 7 8 9 11 12 13 14 14 15 15 16 17 17 18 19 21 22 22 22 23 24 23 21 20 21 22 23 22 20 21 23 24 24 24 24 24 25 25 25 25 24 24 25 26 27 28 27
1 1 3 4 4 3 3 4 5 7 7 7 7 7 7 7 6 5 5 5 5 6 6 6 7 8 7 7 7 6 5 5 4 3 2 2 3 3 4 6 8 9 10 11 12 13 14 15 16 17 17 16 17 18 20 21 21 20 21 21 21 19 19 19 20 21 20 19 18 18 20 22 22 22 22 22 23 23 23 23 22 22 23 23 23 23
0 2 4 4 3 3 5 6 7 9 8 6 6 6 5 6 7 6 6 6 7 7 8 9 9 8 7 6 6 6 5 4 4 3 1 1 1 2 4 6 8 9 10 11 11 12 13 15 15 16 17 16 16 17 19 20 20 19 19 19 19 19 19 19 18 17 18 17 16 16 16 18 19 19 19 20 21 21 22 22 22 22 22 21 20 19
1 3 3 4 5 6 7 8 9 9 8 6 6 5 4 5 7 7 7 7 8 7 8 8 9 9 9 8 8 7 5 2 3 4 3 1 1 3 4 6 7 9 10 11 12 13 13 14 15 15 15 15 15 16 17 18 18 18 18 18 18 19 20 20 18 16 16 16 16 15 14 14 15 15 16 16 17 18 18 19 19 19 19 19 18 17
3 3 4 6 6 4 5 8 7 6 6 4 4 5 6 6 7 8 8 7 7 7 6 7 7 9 10 10 10 9 6 3 4 4 3 1 1 3 4 5 7 9 10 11 12 12 12 13 14 15 14 13 13 14 16 17 17 16 16 17 18 19 20 20 20 18 16 16 15 14 13 12 11 11 11 12 12 13 14 14 14 14 15 15 14 14
3 5 5 5 3 3 7 8 5 5 6 6 5 6 6 6 7 8 8 7 6 7 8 8 7 7 7 7 9 9 7 6 5 4 2 1 1 2 3 5 7 9 10 10 10 11 12 12 13 14 13 11 11 13 14 15 15 14 14 16 16 17 18 19 20 20 17 15 14 13 12 11 10 9 8 8 8 9 10 11 11 11 11 11 11 11
Wind_Direction
132 129 178 183 186 189 188 174 161 165 143 134 120 107 114 100 277 265 264 274 259 111 264 171 92 42 28 12 4 352 16 32 9 357 14 28 215 262 274 265 268 252 254 283 291 268 252 247 247 248 246 242 238 231 226 222 218 216 214 213 215 216 216 213 210 207 206 205 203 204 204 205 210 211 209 210 215 217 221 224 221 219 218 216 217 217
112 152 209 203 190 185 180 170 138 126 119 111 120 108 83 166 257 263 251 297 335 114 317 74 82 42 15 20 14 16 33 27 6 8 14 9 30 9 295 270 279 274 283 315 334 328 298 268 265 268 267 260 251 241 233 228 223 222 220 218 220 222 221 218 214 210 210 212 210 208 208 208 210 210 208 211 215 216 221 224 221 220 221 221 220 218
137 186 224 211 180 128 102 127 113 112 118 100 118 116 91 232 270 288 279 325 12 92 65 80 83 36 345 1 23 31 38 27 11 28 27 16 21 9 324 267 254 257 294 352 21 17 13 337 296 280 284 282 271 260 253 245 235 233 236 241 258 263 248 229 220 218 218 221 222 219 217 214 212 212 214 218 220 222 223 223 221 218 221 224 223 218
163 229 223 184 146 114 89 101 104 96 94 95 121 127 209 260 16 290 291 340 12 56 108 106 91 41 348 352 24 28 24 24 27 40 40 33 30 12 350 344 315 270 318 27 42 41 51 40 15 330 309 304 316 335 342 350 16 22 10 339 290 278 267 247 229 224 224 229 231 230 230 226 221 218 219 219 222 227 228 223 220 218 218 224 224 220
186 227 176 136 141 139 117 112 122 122 115 159 160 140 176 223 186 218 282 343 4 40 110 113 79 24 4 11 15 4 4 29 32 38 39 32 30 27 23 22 15 3 15 45 55 59 61 54 50 45 40 35 26 17 5 6 8 320 284 254 248 250 252 249 236 226 224 229 231 230 232 232 224 221 219 206 204 220 227 224 221 219 218 222 222 219
210 219 127 125 152 149 133 150 164 156 153 228 219 177 178 177 189 237 318 21 36 40 160 105 79 9 339 19 17 349 13 36 33 35 35 27 26 29 30 29 26 26 30 40 43 46 48 48 52 53 55 61 62 65 75 142 177 258 265 255 247 243 245 252 244 232 228 228 228 226 226 224 214 213 218 208 201 213 221 220 220 220 219 221 222 219
190 175 129 129 153 157 156 184 203 159 134 209 230 191 177 153 160 232 253 79 81 196 211 93 111 155 321 16 10 340 24 41 37 34 29 25 27 30 31 29 31 31 31 36 35 34 37 41 49 55 58 70 97 122 155 161 143 157 272 267 257 247 243 247 244 237 232 228 228 228 228 228 222 219 226 227 223 221 217 214 218 220 220 222 222 219
162 157 135 118 128 147 164 195 209 155 128 218 227 172 160 157 168 193 177 166 217 231 329 30 106 121 28 6 337 314 21 40 37 31 25 27 30 31 32 31 32 33 30 36 38 33 33 37 43 50 54 67 105 139 173 179 154 146 223 250 250 248 243 242 243 237 232 229 229 227 229 239 242 241 240 236 234 229 220 214 218 219 218 219 221 220
159 162 168 148 127 151 190 199 183 153 144 229 201 154 154 158 166 160 141 151 347 36 293 327 48 93 308 294 320 318 30 41 33 28 26 31 33 32 33 31 31 31 30 33 34 33 32 33 33 35 36 35 44 137 220 241 257 196 217 234 242 247 243 241 241 237 235 234 229 220 225 241 250 258 259 249 239 232 221 215 218 218 213 215 221 221
167 185 176 151 149 192 206 194 167 160 185 210 146 109 97 93 92 100 113 125 45 54 237 286 22 95 259 301 333 341 44 42 29 28 30 36 39 36 32 29 27 27 28 29 27 26 25 23 23 27 31 28 24 9 316 305 317 324 302 273 264 265 257 247 244 241 239 235 230 223 226 236 241 249 256 254 244 236 223 217 218 217 215 217 220 217
324 214 155 145 173 191 186 170 169 173 171 142 116 82 65 53 46 56 57 91 78 351 257 269 28 104 137 291 330 40 57 51 40 39 38 40 42 39 33 28 25 23 23 23 23 22 19 16 15 17 21 21 21 19 10 346 325 318 316 305 296 291 279 264 251 244 240 236 238 238 235 240 238 235 239 240 235 232 225 220 219 221 224 223 219 215
348 32 177 222 192 136 111 109 165 188 131 105 110 103 92 30 21 34 357 48 102 242 270 298 19 90 106 241 95 86 83 76 68 57 49 46 43 39 34 29 24 23 21 20 21 18 15 14 13 13 14 15 16 13 11 6 347 331 328 324 316 311 302 283 260 250 252 251 250 246 242 247 245 236 232 237 237 231 226 222 220 221 220 218 219 220
320 238 262 294 238 132 113 91 40 3 34 90 108 120 118 62 36 59 311 64 156 226 278 333 2 75 85 100 90 92 90 80 74 66 56 51 48 41 33 27 25 23 21 21 20 15 13 11 8 8 10 13 15 12 9 7 2 353 344 339 334 332 327 300 269 260 261 259 258 257 255 256 257 250 241 244 247 241 234 226 221 218 212 208 215 220
245 276 289 307 264 169 136 134 125 168 179 134 135 143 141 121 116 156 248 201 218 235 302 340 13 87 127 87 79 83 84 79 76 71 63 55 49 42 31 25 24 22 21 20 18 16 13 9 6 5 7 10 11 10 9 9 8 4 356 347 341 339 338 320 288 272 270 268 268 273 273 269 267 265 260 258 257 252 245 237 230 225 215 209 215 220
156 251 239 176 219 184 159 170 167 155 153 162 155 136 148 154 141 170 192 167 182 197 333 348 36 126 211 95 75 88 88 81 77 73 69 60 48 41 32 25 25 23 19 15 14 15 12 8 7 6 6 6 7 7 7 8 9 8 3 356 348 342 338 333 325 311 301 296 289 287 288 279 267 260 261 266 267 263 257 251 245 239 226 216 221 226
135 226 248 224 176 165 171 186 147 129 126 185 139 105 156 184 137 129 171 161 154 128 10 355 80 175 269 3 78 102 90 77 73 62 60 57 46 40 31 24 25 23 20 16 12 10 7 6 7 8 6 4 4 4 5 6 7 6 4 3 0 355 345 338 338 335 321 309 296 287 283 278 269 257 250 254 265 269 267 258 250 247 232 215 222 231
115 252 280 299 179 178 180 173 142 141 146 129 128 152 209 173 117 115 154 80 93 114 39 318 150 125 20 303 128 118 96 77 70 53 46 46 42 37 27 22 22 19 19 17 13 8 4 4 4 4 4 3 3 1 1 5 7 7 6 7 8 8 1 347 336 330 323 314 301 291 284 279 275 270 260 258 262 266 267 263 258 259 248 222 222 228
144 243 295 267 186 228 170 125 89 65 135 126 163 184 171 88 92 106 122 35 50 113 237 303 153 153 154 243 179 134 109 87 77 62 46 32 33 32 22 18 17 16 18 14 12 9 4 2 1 360 358 359 1 0 1 4 7 10 12 11 10 9 6 358 346 334 325 320 310 300 294 289 287 285 278 275 276 273 269 268 266 266 262 251 241 234
129 189 295 295 172 315 27 90 69 3 44 129 156 152 113 118 132 87 124 139 109 121 205 40 128 187 179 223 222 167 134 109 93 73 55 35 31 29 17 13 11 12 15 11 10 6 1 0 358 358 355 355 1 4 4 6 9 12 14 13 11 8 6 5 1 354 344 334 323 311 303 301 302 298 292 287 282 277 273 269 264 255 251 255 255 247
107 124 262 301 296 341 19 62 130 21 23 57 98 84 51 132 153 151 143 146 136 142 151 117 151 236 206 229 244 156 133 121 108 82 64 43 34 31 20 15 9 9 11 6 6 2 358 358 356 357 355 354 1 5 5 8 10 12 11 11 11 8 7 8 7 3 359 350 338 326 317 311 308 302 297 292 282 273 271 269 265 259 256 255 252 246
70 102 179 307 334 39 65 30 189 176 112 75 97 112 50 70 114 133 95 77 119 140 145 135 184 231 226 302 95 98 102 112 111 96 79 51 38 35 25 22 15 10 9 4 2 359 356 355 354 355 354 356 1 4 5 6 8 9 9 9 9 7 6 9 9 8 5 358 349 341 334 326 315 302 289 282 277 270 268 269 266 263 261 254 246 241
148 115 130 332 5 54 75 296 246 202 170 142 134 154 147 122 120 115 97 357 89 124 154 152 176 202 29 28 94 109 106 104 105 102 89 58 40 37 26 25 21 13 10 4 360 358 355 355 354 352 354 358 2 3 4 4 4 6 6 7 8 7 8 11 12 10 8 4 357 347 343 335 318 299 282 276 278 272 268 270 269 262 257 252 247 242
148 100 83 49 37 167 252 294 41 111 121 106 89 105 121 114 119 124 167 207 90 95 141 112 130 179 60 38 64 96 97 92 91 94 87 62 42 37 27 25 23 17 13 5 1 358 356 355 354 354 357 359 360 0 2 2 3 4 5 6 7 8 11 14 14 12 10 7 1 352 347 341 326 304 285 279 282 278 271 270 270 263 254 249 247 242
99 84 83 31 320 303 297 323 11 49 71 72 49 34 70 88 120 135 166 163 123 137 130 86 112 192 106 75 67 78 87 85 75 73 73 63 44 36 29 25 20 18 15 8 3 360 357 357 357 357 360 0 0 360 0 1 1 1 3 4 5 6 8 10 11 15 14 9 4 358 351 343 335 320 296 278 272 274 273 269 265 260 251 245 242 237
109 87 91 83 24 357 349 349 2 24 43 62 42 354 351 62 88 113 122 83 107 176 150 121 176 190 118 102 78 77 85 79 69 67 66 62 51 39 33 29 21 19 17 11 7 1 358 359 359 359 1 2 2 1 1 2 1 1 2 3 3 3 3 3 6 11 12 8 5 2 354 345 334 325 312 291 270 265 267 266 260 254 248 245 240 232
102 96 97 117 131 141 162 229 223 120 41 43 36 7 9 39 57 100 119 83 124 180 135 125 160 141 120 109 83 70 73 72 70 70 66 60 55 44 39 37 27 24 21 13 9 4 359 359 358 360 3 4 3 1 1 2 1 2 3 5 6 5 4 4 5 5 4 2 2 359 355 350 340 329 321 310 288 272 265 262 257 250 244 242 238 231
95 72 57 95 124 158 180 205 236 132 83 46 7 10 16 14 18 87 115 138 162 146 80 182 156 137 132 122 95 69 61 68 70 66 62 59 52 43 42 43 37 34 27 17 12 5 1 359 357 359 2 3 2 1 2 3 2 3 4 6 9 8 7 6 4 2 2 1 359 355 352 350 344 335 323 308 293 281 270 261 254 247 240 235 231 228
100 65 35 62 71 76 107 82 57 74 79 70 55 34 27 21 30 76 99 153 148 129 122 185 141 128 131 122 104 87 69 68 63 56 55 55 49 43 40 39 38 35 26 19 15 8 4 360 355 358 0 1 2 3 4 4 3 4 6 7 10 10 10 9 5 1 0 1 359 355 350 346 342 337 327 305 283 280 275 264 255 247 240 232 224 222
102 67 51 80 70 51 51 66 77 86 80 65 64 55 42 38 47 71 77 32 114 133 160 149 130 116 118 115 101 90 77 69 64 57 55 55 50 46 42 39 35 30 21 16 12 6 4 1 357 358 360 2 5 5 5 4 2 3 6 8 11 11 12 11 7 3 0 0 360 356 351 347 343 339 332 313 284 277 275 267 259 248 235 227 221 218
96 82 104 100 80 52 33 44 73 88 85 64 55 55 57 58 60 69 72 56 73 98 119 123 114 99 98 108 100 91 81 75 70 61 54 52 49 46 45 41 32 24 16 11 7 3 1 2 1 1 2 5 6 6 5 3 3 4 6 9 11 12 13 13 11 8 5 2 359 358 355 351 349 346 339 323 296 280 274 266 258 246 232 224 221 219
77 134 183 111 80 52 30 54 74 83 85 69 50 45 53 57 56 57 62 66 74 93 110 112 107 98 99 106 100 95 85 78 73 64 56 50 47 48 47 41 31 20 11 6 4 3 3 4 4 4 5 6 5 5 5 5 6 9 10 11 12 13 15 15 13 11 9 5 2 3 2 357 354 353 347 333 310 288 277 267 255 242 231 224 220 217
66 133 181 78 87 67 31 77 81 79 81 69 49 40 40 44 54 50 41 44 77 122 126 119 112 120 128 117 102 90 81 76 68 64 62 52 48 50 47 42 32 17 9 5 2 3 4 5 5 4 4 4 4 6 8 8 10 12 13 13 14 16 18 18 16 12 10 9 7 7 6 2 359 358 354 344 327 303 282 266 251 239 229 220 215 213
90 127 143 97 95 122 195 88 44 48 71 63 34 29 35 51 80 69 35 26 38 124 136 127 124 129 128 122 108 92 83 78 67 62 62 55 53 52 45 42 32 14 10 5 358 1 5 5 5 4 4 4 5 7 10 12 14 14 15 17 20 21 22 20 17 14 12 11 11 10 8 7 4 2 0 356 343 323 297 269 249 237 227 217 212 208
94 112 126 105 99 144 199 342 15 40 78 62 312 319 16 79 87 80 55 37 45 74 99 100 110 120 120 115 111 105 97 88 80 72 63 54 52 49 44 39 27 16 15 6 357 2 5 4 4 5 7 8 10 12 14 17 18 19 20 23 26 27 25 22 20 18 14 12 12 11 10 10 8 5 6 6 359 347 329 296 260 241 228 216 207 200
107 96 103 85 91 133 137 29 57 133 105 28 1 36 99 105 97 88 71 53 62 84 96 102 109 113 107 105 109 110 104 92 81 69 58 52 50 51 51 38 24 23 19 9 5 7 7 5 4 5 9 13 15 17 18 19 21 23 23 25 28 29 27 25 23 20 16 14 13 12 11 12 11 9 12 15 13 9 2 347 319 267 234 214 200 194
119 110 102 72 68 116 95 60 128 158 95 89 83 81 104 106 98 88 69 47 51 78 100 108 111 111 108 111 113 109 106 96 78 62 50 46 45 50 53 38 22 22 19 14 13 11 10 10 9 10 13 18 20 20 19 20 23 24 24 25 27 27 25 24 23 20 17 15 14 13 13 14 14 12 16 22 25 24 21 17 18 23 32 188 186 184
110 120 109 62 45 122 106 87 106 117 132 136 133 176 165 166 201 126 91 57 44 74 115 118 118 120 119 121 123 122 122 104 75 48 28 29 34 45 51 46 38 33 28 26 24 23 23 23 21 21 22 23 23 20 19 21 24 25 25 25 25 25 24 22 20 19 17 16 16 17 16 16 18 17 19 26 33 33 33 33 37 49 65 95 139 147
71 109 134 114 80 105 102 100 112 138 210 185 163 192 182 156 182 144 108 95 51 88 130 130 126 131 134 134 141 146 141 94 68 44 15 17 22 37 47 47 45 42 37 33 32 32 31 29 28 27 26 24 23 20 20 22 24 25 25 23 23 23 22 20 17 16 16 16 18 20 21 21 23 24 24 29 37 41 42 44 47 59 71 71 82 102
51 56 96 99 95 111 110 118 149 186 227 143 148 197 321 71 159 116 80 115 131 110 138 138 135 143 150 151 155 158 148 91 108 127 48 18 27 39 45 44 43 42 41 39 38 37 33 32 33 32 28 25 21 20 22 23 24 24 22 21 22 22 21 18 15 14 17 19 22 24 25 26 28 31 29 31 40 48 51 52 52 62 72 68 67 83
39 24 54 88 106 110 101 103 135 164 230 87 145 234 293 130 136 102 66 191 168 124 143 147 147 154 158 156 155 155 148 147 153 158 153 108 69 55 51 48 42 39 38 37 38 39 37 36 35 31 27 25 22 22 23 24 24 24 21 21 23 23 21 19 17 18 20 25 27 28 28 30 33 36 36 35 42 51 58 61 58 59 65 63 63 77
27 18 56 104 104 85 86 102 106 330 216 179 208 265 260 167 127 127 207 183 137 116 128 140 145 152 156 156 151 132 16 105 125 133 129 103 76 56 53 54 50 44 39 36 36 37 36 34 32 31 29 28 27 25 25 26 26 25 22 22 23 23 21 21 23 24 25 28 32 31 31 35 37 40 42 43 47 52 59 64 64 63 62 57 55 71
53 40 37 74 88 76 80 95 107 274 206 144 194 281 269 162 167 197 179 133 122 120 116 125 139 144 139 130 122 115 106 102 108 114 104 89 77 58 52 52 50 44 39 36 36 35 32 30 31 32 31 31 29 28 27 28 27 24 21 20 22 23 23 23 26 28 27 29 33 34 35 38 41 44 45 47 50 53 56 60 65 67 68 62 54 61
87 86 61 81 112 84 64 73 119 187 308 20 104 250 351 114 165 150 121 110 116 121 115 117 130 134 126 120 120 123 118 106 104 106 96 85 78 67 60 54 45 37 33 30 29 28 27 28 28 29 30 31 30 29 27 25 23 20 17 19 22 24 23 22 25 30 31 30 32 35 38 40 43 46 47 48 52 55 55 55 59 62 65 66 61 57
53 112 143 175 186 126 122 147 170 201 315 337 94 144 88 101 134 134 123 118 121 125 124 120 122 128 128 127 125 123 118 112 109 105 93 81 72 65 56 46 37 30 25 22 20 18 19 20 20 22 26 29 29 28 26 23 21 19 17 18 22 23 22 22 24 28 32 32 32 35 39 42 45 48 48 49 53 55 52 51 53 55 56 60 62 60
66 125 128 130 121 108 125 151 102 67 50 49 79 107 105 100 105 113 117 120 124 130 133 124 120 122 122 124 125 120 116 115 110 101 91 79 67 53 36 28 26 20 15 14 15 14 13 13 12 13 17 21 23 23 22 21 21 19 16 16 18 20 21 23 25 27 31 33 32 33 37 42 47 49 49 49 51 52 50 49 50 51 52 53 54 56
99 98 85 102 122 103 66 62 80 82 77 77 79 89 98 101 104 108 111 113 113 112 112 113 118 119 117 118 120 117 119 121 111 98 89 74 58 40 23 15 13 11 10 10 10 8 8 9 9 8 8 11 14 14 16 18 18 17 15 15 16 19 22 24 25 28 32 34 32 31 33 38 43 47 49 50 51 52 52 52 53 53 53 54 53 52
327 42 77 104 138 127 69 75 90 87 89 91 87 85 88 91 93 96 104 113 114 108 106 106 109 110 111 115 121 123 125 123 111 93 72 65 53 29 11 4 2 6 9 8 6 4 3 3 3 1 1 4 6 7 11 15 17 17 16 16 17 21 23 24 25 27 30 34 36 32 30 34 39 43 47 49 52 53 53 53 54 54 53 54 56 57
284 103 101 94 95 97 104 112 99 84 84 87 87 92 96 93 93 92 94 102 101 96 100 105 107 109 110 113 120 124 120 118 124 131 135 101 39 356 355 359 2 6 8 7 3 359 356 356 355 353 354 359 4 5 7 12 15 15 15 17 21 24 25 25 25 25 25 31 36 34 31 32 35 40 45 48 51 55 55 53 54 55 52 50 51 54
96 93 112 113 100 93 103 120 117 99 86 76 77 90 99 102 104 102 96 98 98 94 92 94 102 115 125 127 126 121 121 149 161 154 162 193 318 348 1 6 5 4 3 1 357 352 351 352 352 351 353 358 3 5 6 10 13 15 16 20 24 26 26 26 26 26 25 29 33 33 31 30 32 38 44 48 52 56 58 57 56 56 56 53 50 49
83 98 124 126 122 132 147 150 143 124 112 116 114 109 109 110 109 107 105 104 104 107 104 91 92 105 119 132 137 133 137 175 183 167 174 223 337 3 7 5 1 1 1 357 352 349 350 351 352 352 355 359 2 4 5 8 11 13 16 20 22 22 22 24 26 28 26 25 28 29 27 25 28 34 40 47 55 59 61 61 59 57 58 57 54 52
132 150 157 140 125 152 156 150 138 115 122 138 136 121 118 119 115 115 121 120 117 122 121 112 106 104 108 130 148 149 152 168 176 178 191 219 2 1 357 355 352 353 356 358 355 352 354 355 354 355 357 359 1 1 2 4 5 7 10 14 17 18 19 22 28 31 29 25 24 24 24 22 21 23 32 45 58 66 71 71 67 62 59 57 56 56